Location: ?????
(30.2541°N, 31.0910°E)
Time: 08:06:20
(UTC+00:00)

Meteor 1-18 Rocket - Pass Details

Date: 27 September 2022
Orbit: 837 x 908 km, 81.2° (Epoch: 28 November)

Event Time Altitude Azimuth Distance (km) Brightness Sun altitude
Rises 03:16:20 0° 190° (S) 3,489 7.3 -7.4°
Reaches altitude 10° 03:18:48 10° 191° (SSW) 2,543 6.6 -6.8°
Maximum altitude 03:24:35 77° 278° (W) 901 4.3 -5.6°
Drops below altitude 10° 03:30:18 10° 4° (N) 2,508 6.7 -4.4°
Sets 03:32:43 0° 6° (N) 3,437 7.5 -3.8°
